Location: Unspecified
(42.3650°N, 71.1030°W)
Time: 08:00:32
(UTC+00:00)

POLYITAN 1 - Visible Passes

Search period start: 24 July 2024 00:00
Search period end: 03 August 2024 00:00
Orbit: 547 x 565 km, 98.1° (Epoch: 23 July)

Date Brightness Start Highest point End Pass type
(mag) Time Alt. Az. Time Alt. Az. Time Alt. Az.
24 Jul ? 07:49:31 10° NE 07:53:06 30° E 07:56:39 10° SSE visible
25 Jul ? 07:47:09 10° NE 07:50:40 28° E 07:54:09 10° SSE visible
26 Jul ? 07:44:45 10° NE 07:48:11 27° E 07:51:36 10° SSE visible
27 Jul ? 07:42:19 10° NE 07:45:41 25° E 07:49:00 10° SSE visible
28 Jul ? 07:39:53 10° NE 07:43:08 23° E 07:46:22 10° SSE visible
29 Jul ? 07:37:25 10° NE 07:40:34 22° E 07:43:42 10° SSE visible
30 Jul ? 07:34:56 10° NE 07:37:58 20° E 07:40:59 10° SE visible
31 Jul ? 07:32:26 10° NE 07:35:19 19° E 07:38:13 10° SE visible
01 Aug ? 07:29:54 10° NE 07:32:39 18° E 07:35:24 10° SE visible
01 Aug ? 09:03:51 10° N 09:07:34 36° WNW 09:11:15 10° SW visible
02 Aug ? 07:27:23 10° NE 07:29:57 16° E 07:32:32 10° SE visible
02 Aug ? 09:01:08 10° N 09:04:54 39° WNW 09:08:39 10° SW visible
